Regional Weather Roundup
Issued by NWS Burlington, VT

Home | Current Version | Previous Version | Text Only | Print | Product List | Glossary On
Versions: 1 2 3 4 5 6 7 8 9 10 11 12 13 14 15 16 17 18 19 20 21 22 23 24 25 26 27 28 29 30 31 32 33 34 35 36 37 38 39 40 41 42 43 44 45 46 47 48 49 50
000
ASUS41 KBTV 250330
RWRBTV
VERMONT REGIONAL WEATHER ROUNDUP
NATIONAL WEATHER SERVICE BURLINGTON VT
1100 PM EDT SUN SEP 24 2017

NOTE: "FAIR" INDICATES FEW OR NO CLOUDS BELOW 12,000 FEET WITH NO
SIGNIFICANT WEATHER AND/OR OBSTRUCTIONS TO VISIBILITY.

* THESE REPORTS ARE NOT UNDER NWS QUALITY CONTROL AND/OR DO NOT
  REPORT WEATHER SUCH AS PRECIPITATION AND FOG.

VTZ001>019-250400-
_____VERMONT_____


CITY           SKY/WX    TMP DP  RH WIND       PRES   REMARKS
BURLINGTON     CLEAR     72  70  93 CALM      30.07R
MONTPELIER     CLEAR     65  65 100 CALM      30.15R FOG
MORRISVILLE    CLEAR     64  63  96 S3        30.11S FOG
ST. JOHNSBURY*   N/A     68  68 100 MISG      30.08R
LYNDONVILLE*   FAIR      68  65  91 CALM      30.13R
MIDDLEBURY*    FAIR      68  67  96 CALM      30.09S
RUTLAND*       CLEAR     68  65  90 SE7       30.11R
SPRINGFIELD    CLEAR     68  64  87 CALM      30.09R
HIGHGATE*      FAIR      68  68  99 CALM      30.05S
NEWPORT*       FAIR      65  65  99 CALM      30.10S FOG
BENNINGTON     CLEAR     67  64  90 CALM      30.09S
SUTTON*          N/A     66 N/A N/A MISG        N/A
ISLAND POND*     N/A     63 N/A N/A CALM        N/A
GALLUP MILLS*    N/A     63 N/A N/A MISG        N/A
UNION VILLAGE*   N/A     66 N/A N/A MISG        N/A
MT. MANSFIELD*   N/A     66 N/A N/A NW21        N/A

_____LAKE CHAMPLAIN_____


CITY           SKY/WX    TMP DP  RH WIND       PRES   REMARKS
BURTON ISLAND*   N/A     72  70  94 S7          N/A
COLCHESTER RF*   N/A     73  72  94 S6          N/A
DIAMOND ISL*     N/A     72  70  94 N2          N/A

$$

NYZ007-026>031-035-052-083-087-250400-
_____NORTHERN NEW YORK_____


CITY           SKY/WX    TMP DP  RH WIND       PRES   REMARKS
PLATTSBURGH    CLEAR     69  66  90 S3        30.06R
SARANAC LAKE   FOG       57  57 100 CALM      30.15S VSB 3/4
MASSENA        CLEAR     72  71  97 SW3       30.08R
OGDENSBURG*    FAIR      67  66  96 CALM      30.07S FOG
POTSDAM*       CLEAR    N/A N/A N/A CALM      30.09S
STARK FALLS*     N/A     68 N/A N/A SE2         N/A
WATERTOWN      CLEAR     67  66  97 CALM      30.09S FOG
FT DRUM        CLEAR     69  65  85 S3        30.10S
ALBANY         CLEAR     71  67  87 CALM      30.06S
GLENS FALLS    CLEAR     66  65  96 NW3       30.07S FOG

$$
NHZ002-005-011-250400-
_____NEW HAMPSHIRE_____


CITY           SKY/WX    TMP DP  RH WIND       PRES   REMARKS
LEBANON        CLEAR     69  67  93 NE3       30.08R
KEENE          CLEAR     67  66  97 CALM      30.07S
MT WASHINGTON  CLEAR     59  46  63 N22         N/A
PLYMOUTH       FOG       65  64  94 CALM      30.07S VSB 3/4
WHITEFIELD     CLEAR     64  61  90 CALM      30.10S FOG

$$

_____REGIONAL QUEBEC LOCATIONS_____


CITY           SKY/WX    TMP DP  RH WIND       PRES   REMARKS
MONTREAL       PTCLDY    77  70  78 S7        30.03S
QUEBEC CITY    MOCLDY    63  55  77 E5        30.06R
SHERBROOKE     CLEAR     68  68 100 VRB2      30.07S

_____REGIONAL ONTARIO LOCATIONS_____


CITY           SKY/WX    TMP DP  RH WIND       PRES   REMARKS
OTTAWA         PTCLDY    72  68  88 S6        30.06S

______KEY______
VSB  - VISIBILITY IN MILES
WCI  - WIND CHILL INDEX
HX   - HEAT INDEX
$$
NNNN




USA.gov is the U.S. government's official web portal to all federal, state and local government web resources and services.